Cloud_Cover
0 11 22 60 96 100 100 100 100 100 67 3 0 0 0 0 0 0 0 3 19 28 28 8 0 0 2 0 0 0 0 0 0 0 1 0 42 38 99 2 12 94 3 0 0 38 3
1 15 65 100 100 100 100 100 100 100 73 0 0 0 0 0 0 0 0 0 26 26 12 1 0 35 0 0 0 0 0 0 0 0 0 2 14 3 5 4 50 6 3 2 5 3 58
14 85 100 100 100 100 100 100 100 100 9 0 0 0 0 0 0 1 1 2 10 7 0 0 0 0 0 0 0 0 0 0 0 0 0 1 0 0 1 44 0 0 79 4 1 1 4
92 100 100 100 100 100 100 100 100 91 0 0 0 0 0 0 0 6 17 0 0 0 0 0 0 0 0 0 0 0 0 0 0 0 0 0 0 0 0 2 0 7 100 72 0 0 0
100 100 100 100 100 100 100 100 100 8 0 0 0 0 0 0 6 14 0 0 0 0 0 1 3 0 0 0 0 0 0 0 0 0 0 0 0 0 0 5 99 94 98 88 0 0 1
100 100 100 100 100 96 59 9 0 0 0 0 0 0 0 0 12 0 4 6 0 0 16 0 0 0 0 0 0 0 0 0 0 0 0 0 0 0 1 99 75 96 100 4 5 0 0
88 6 100 88 0 0 0 0 0 0 0 0 0 0 0 14 0 0 12 0 0 0 0 0 0 0 0 0 0 0 0 0 0 0 0 0 0 1 100 54 88 16 0 0 2 0 0
0 4 82 0 0 0 0 0 0 0 0 0 0 0 3 0 0 6 13 0 0 0 0 0 0 0 0 0 0 0 0 0 0 0 0 0 0 16 85 11 0 0 0 53 2 0 0
0 0 0 0 0 0 0 0 0 0 0 0 0 4 9 0 7 22 0 0 0 0 0 0 0 0 0 0 0 0 0 0 0 0 0 2 14 2 0 0 0 0 0 26 0 0 0
0 0 0 0 0 0 0 0 0 0 0 0 0 82 13 61 6 0 0 0 0 0 0 0 0 0 0 0 0 0 0 0 0 0 0 0 6 1 0 0 0 6 36 0 0 0 1
0 0 0 0 0 0 0 0 0 0 0 0 0 17 63 59 0 0 0 0 0 0 0 0 0 0 0 0 0 0 0 0 0 0 0 0 0 0 0 0 0 0 0 0 0 0 0
0 0 0 0 0 0 0 0 0 0 0 0 0 0 63 0 0 0 0 0 0 0 1 0 0 0 0 0 0 0 0 0 0 0 0 0 0 0 0 0 0 0 0 0 0 6 0
16 0 0 0 0 0 0 0 0 0 0 0 0 18 92 0 0 0 0 0 0 0 1 0 0 0 0 0 0 0 0 0 0 0 0 0 0 0 0 0 0 0 0 24 86 29 92
100 100 8 0 0 0 0 0 0 0 0 0 0 52 0 0 0 0 0 0 0 0 4 2 0 0 0 0 0 0 0 0 0 0 0 0 0 0 0 0 0 0 4 58 98 91 68
100 65 6 0 0 0 0 0 0 0 0 0 26 0 0 0 0 0 0 0 0 6 8 8 0 0 0 0 0 0 0 0 0 0 0 86 68 56 8 0 0 0 5 97 81 99 100
91 0 0 0 0 0 0 0 0 0 0 1 0 0 0 0 0 0 0 0 1 5 52 41 5 2 0 0 0 0 0 0 0 0 0 78 100 65 78 0 0 1 100 37 100 29 28
100 0 12 0 0 0 0 0 0 0 0 13 0 0 0 0 0 0 0 0 0 3 2 0 14 74 30 5 0 0 0 0 0 0 0 0 1 29 63 100 23 2 70 2 39 96 100
98 0 20 0 0 0 0 0 0 0 10 0 0 0 0 0 0 0 0 0 0 3 0 0 0 26 99 100 95 0 0 3 0 0 0 0 0 5 0 89 50 0 11 100 100 100 100
80 0 0 6 0 0 0 0 0 0 0 0 0 2 1 0 0 0 0 0 5 0 0 0 0 0 27 59 73 100 39 2 0 0 0 0 0 0 22 45 100 99 87 100 100 95 99
99 11 0 32 0 0 0 0 0 0 0 9 0 4 0 4 1 0 4 15 0 0 0 5 5 1 42 6 100 52 91 1 0 0 0 0 0 73 79 100 100 100 30 66 100 92 83
97 44 54 71 12 0 0 0 0 0 0 11 0 10 99 4 5 2 0 3 5 0 0 0 0 4 2 0 11 95 100 2 2 0 0 2 3 53 100 100 100 100 100 100 100 68 3
93 40 8 90 15 0 0 0 0 0 0 0 0 0 2 0 5 12 1 5 0 0 1 0 0 0 0 98 92 76 100 100 13 25 2 35 5 23 82 96 100 100 100 100 100 9 6
100 19 96 58 2 0 0 0 0 0 0 0 0 0 0 0 0 4 1 3 0 0 6 54 33 2 89 17 100 100 100 100 100 100 97 98 6 81 24 99 100 100 100 100 100 53 2
99 97 29 1 0 0 48 0 0 0 21 1 3 1 2 0 16 73 55 61 5 17 73 15 9 10 46 52 53 100 100 100 100 100 100 70 2 0 3 53 85 100 56 100 90 3 1
94 84 10 3 10 94 100 1 0 0 2 0 0 0 0 0 23 18 4 5 5 5 5 47 0 0 98 72 4 27 98 100 100 100 100 1 19 46 1 5 22 6 33 100 26 0 0
100 66 57 88 100 100 100 29 0 0 0 0 5 1 0 5 84 65 5 14 100 4 5 2 0 0 0 1 8 2 4 97 96 100 88 65 5 1 1 5 5 91 10 2 0 1 0
100 97 100 76 100 95 100 95 0 0 4 7 4 5 4 5 12 3 39 5 48 72 78 15 0 0 0 0 4 5 100 91 24 14 40 100 4 0 4 5 6 32 3 3 0 0 0
100 97 100 100 100 75 37 99 1 0 0 5 5 1 0 0 11 0 1 3 6 18 100 37 48 0 0 4 5 41 33 42 37 3 0 0 4 5 3 2 84 4 0 0 0 3 5
13 7 100 100 100 100 64 93 19 68 31 0 0 5 5 2 10 2 2 100 100 100 15 13 27 6 9 6 48 5 5 5 0 4 5 0 0 12 3 11 0 0 0 2 5 5 5